NOAA 16 DEB, 42418

Orbit data source: Space-Track

NOAA 16 DEB, 42418 is space debris in SSO originally from a launch on Thu, 21 Sep 2000 UTC launched from the Air Force Western Test Range (AFWTR). Debris objects in space refer to the collection of defunct objects orbiting the Earth. Examples of debris include non-operational satellites, rocket bodies, and fragments generated from explosions, collisions, or faulty payload assembly.

Loading next visibility...
Identifier
42418, 2000-055TN
Orbit
SSO
Country
Flag of USUS
Related business
Manufacturer
Unknown
Mission
Spacecraft
Bus & Motor
Unknown
Mass
Unknown
Launch date (UTC)
2000-09-21 (26 years ago)
Launch vehicle
Unknown
Launch site
Air Force Western Test Range (AFWTR)
Object type
Payload
Rocket body
Debris
Shape & HBR
Unknown shape, 0.1 m
Radar Cross Section
Medium (>0.1 m² and <1 m²)

Expand to show TLE details & history
Last TLE update: 21 hours ago

TLE from 21 hours ago
0 NOAA 16 DEB
1 42418U 00055TN  26171.46634581  .00003147  00000-0  11796-2 0  9994
2 42418  98.6675 250.3339 0012420 145.5656 214.6335 14.32360037532157
Epoch: 2026-06-20T11:11Z
TLE epoch observation values (Epoch: 2026-06-20T11:11:32.277Z)
Latitude
-0.00001°
Longitude
173.76885°
Altitude
794.11 km
Speed
7.453 km/s
True Right ascension
16h 41m 20s
True Declination
0° 00' 00"
Sunlit
Object was in full shadow at epoch
Visualization orbit readout
Latitude
Unknown
Longitude
Unknown
Altitude
Unknown
Speed
Unknown
Apparent Right ascension
Unknown
Apparent Declination
Unknown
Sunlit
N/A
Visualization observer readout
Local Sidereal Time
19:36:31
Azimuth
Unknown
Elevation
Unknown
Doppler factor
Unknown
Orbital elements
Apogee altitude
789.885 km
Perigee altitude
772.101 km
Semi-major axis
7,159.13 km
Eccentricity
0.00124
Inclination
98.6675°
RAAN
250.3339°
Arg. of periapsis
145.5656°
True anomaly
214.55272°
Mean anomaly
214.6335°
Eccentric anomaly
214.5931°
Mean motion
3.58305 °/min
Orbital period
100.47 mins
BSTAR
0.0011796
Loading maneuver chart data...
Computing Atmospheric mass density...
Loading historical data...
Loading historical data...
Loading historical data...
Loading historical data...
Loading historical data...
Loading historical data...
Loading historical data...

Documentation

Showing up to 5 results
|